Dewpoint
57 57 57 55 54 50 47 42 36 32 30 28 28 30 29 28 30 30 30 31 30 31 33 32 32 34 33 33 33 34 33 33 31 31 32 31 32 32 33 34 33 33 32
53 54 52 50 47 45 40 34 31 29 28 28 29 28 28 28 29 28 28 29 29 29 31 30 31 32 30 31 32 32 33 33 33 29 30 31 32 32 32 32 32 32 33
46 46 45 43 41 38 32 29 29 29 28 28 29 29 29 29 30 29 29 29 29 30 30 29 30 30 28 31 32 32 32 33 33 30 28 29 29 30 30 31 31 31 30
42 42 41 39 38 35 32 31 29 29 30 30 31 31 31 31 31 30 29 29 29 29 29 28 29 29 31 32 31 30 30 30 31 30 29 28 27 28 28 27 27 29 28
40 39 38 35 34 33 32 31 31 31 31 32 32 31 32 31 31 30 30 29 28 27 26 27 28 31 31 30 28 28 29 29 29 28 27 25 25 25 25 26 27 28 29
37 35 34 34 34 33 33 33 32 30 30 30 30 32 32 33 34 34 31 28 26 25 24 26 28 29 28 26 27 28 29 28 27 27 27 25 23 23 25 26 28 27 28
35 34 33 32 31 31 31 30 29 28 27 26 29 30 30 31 32 32 28 25 23 24 25 26 26 25 26 26 27 28 28 28 28 27 26 25 24 25 27 29 27 29 29
33 32 31 30 29 28 27 26 24 24 23 24 26 27 29 29 30 29 25 23 23 23 25 25 24 24 24 26 27 27 27 27 28 27 26 26 27 29 29 29 30 31 31
30 30 28 27 26 25 24 23 23 23 22 23 23 25 25 26 26 26 24 23 22 23 24 24 24 24 25 27 27 26 26 27 27 27 26 28 28 25 25 29 29 29 28
28 27 26 27 24 22 22 22 22 22 22 23 22 22 24 24 25 25 24 23 22 23 24 23 24 24 26 26 26 26 25 25 27 28 28 28 27 28 28 29 29 29 29
25 23 23 21 21 21 20 21 21 20 20 19 18 21 22 22 24 24 25 24 24 23 23 22 22 25 25 25 25 25 26 27 26 25 25 25 25 25 28 31 32 31 28
22 21 19 19 18 19 19 19 17 16 16 17 18 19 20 21 23 23 23 24 24 22 22 22 23 23 24 24 25 26 26 26 25 25 25 24 25 26 27 29 32 32 31
19 17 17 17 18 17 16 15 14 16 16 17 18 19 19 21 21 22 23 23 22 23 23 23 22 21 23 24 24 24 24 24 23 23 24 23 25 27 28 29 30 29 28
17 16 17 17 16 16 16 16 16 17 18 19 19 19 19 20 20 22 22 22 23 22 21 20 18 19 21 22 22 22 23 23 24 24 23 24 24 26 26 29 28 27 27
16 16 16 17 16 17 17 18 19 20 20 20 19 18 19 18 19 22 21 22 21 19 19 17 17 17 17 18 19 20 21 21 22 22 23 24 24 26 27 29 28 27 25
15 16 16 15 16 18 19 21 22 22 21 20 20 19 19 20 21 20 21 21 18 18 15 15 15 15 15 16 17 18 20 20 21 22 23 23 25 28 27 27 27 26 24
14 15 15 16 18 19 19 19 19 19 19 19 19 19 19 19 19 20 20 19 15 15 14 14 14 14 14 15 16 17 19 19 21 22 22 24 26 27 26 25 25 24 23
15 16 16 17 19 20 20 19 19 18 14 15 17 17 17 18 19 19 18 14 14 15 15 15 15 15 15 15 15 16 18 18 20 21 22 22 26 26 25 24 24 23 21
19 20 20 21 21 20 20 19 18 17 16 15 13 14 15 17 18 18 15 13 14 15 15 15 15 15 15 15 15 15 17 17 19 20 20 22 25 26 24 25 24 25 23
21 21 21 21 20 19 18 18 17 15 14 13 14 14 14 16 17 15 14 15 15 15 16 15 15 16 15 15 14 14 15 16 17 18 19 21 24 26 25 25 24 22 21
22 21 21 19 18 18 17 15 14 14 13 14 14 14 16 18 15 14 15 16 16 16 16 16 16 15 15 14 13 13 14 15 16 17 19 21 23 25 26 25 22 21 20
19 18 17 17 16 14 14 15 14 14 14 14 15 16 16 16 15 15 15 16 16 16 16 16 15 15 14 14 13 13 13 13 15 16 18 20 22 26 25 23 21 20 19
17 16 15 15 15 16 15 14 15 15 15 15 15 15 15 15 15 15 15 15 15 15 15 15 15 14 14 14 14 13 13 13 15 17 18 19 22 25 25 23 21 19 19
15 15 15 15 15 16 15 15 16 16 15 15 14 14 14 15 15 15 14 14 13 13 13 13 13 13 12 12 12 12 12 13 16 19 23 26 27 26 24 22 20 19 19
16 16 16 15 16 15 15 14 14 13 13 13 14 14 15 15 14 13 13 13 12 11 11 12 12 12 11 10 10 10 11 19 23 25 28 29 26 26 24 22 20 20 20
17 16 16 16 15 13 12 12 12 12 12 13 13 13 13 13 13 13 12 11 11 11 10 10 10 10 10 9 9 12 17 20 23 27 31 28 26 24 23 21 20 20 20
Wind_Speed
19 19 18 18 19 17 16 17 18 18 18 18 17 16 17 15 12 14 11 10 11 9 7 9 8 5 4 4 3 3 4 5 11 18 13 20 21 20 22 19 20 20 20
15 19 19 17 18 21 19 18 19 19 16 17 16 17 14 15 13 13 13 7 10 9 7 8 6 4 5 5 6 7 6 6 9 20 19 16 19 18 19 19 17 16 18
13 16 17 20 19 20 19 19 20 21 19 16 15 14 15 15 14 11 12 9 11 7 8 6 5 5 7 6 7 8 9 9 11 13 19 16 15 16 18 17 16 18 18
14 15 16 18 20 19 18 19 19 20 22 19 15 14 12 13 15 11 11 9 9 6 7 6 5 5 6 7 8 9 10 13 12 15 17 18 16 16 15 21 24 18 23
16 16 16 17 19 21 20 18 19 17 16 17 19 14 11 13 10 12 9 9 7 6 5 5 5 6 7 10 10 12 12 11 12 15 17 18 18 21 21 19 23 26 23
16 17 17 19 21 21 21 20 16 19 17 16 17 14 12 9 13 11 9 8 6 5 5 7 8 6 10 13 12 13 13 15 16 15 18 19 21 21 20 23 24 26 24
19 18 18 21 20 20 19 24 18 17 17 14 16 15 13 12 11 12 10 7 6 5 6 7 9 8 12 12 12 14 14 16 17 18 17 18 22 21 23 25 24 25 26
19 20 20 22 21 22 20 21 19 17 19 17 15 14 13 11 12 10 9 7 6 6 6 8 10 12 13 14 13 13 13 13 15 12 14 19 20 21 20 23 24 27 24
22 21 21 22 23 21 21 20 18 18 18 15 14 14 14 11 10 8 7 5 5 6 7 9 10 12 15 18 15 16 17 15 15 21 22 24 25 28 25 20 20 22 24
21 21 21 22 22 21 20 20 13 15 17 15 14 13 12 10 8 7 7 5 6 8 9 9 10 13 17 19 18 16 20 20 19 18 15 16 19 19 25 15 17 21 18
21 21 21 20 21 20 18 17 18 18 17 17 16 11 10 9 7 7 5 4 5 6 8 9 10 16 19 19 20 14 17 23 20 17 17 15 14 15 15 13 12 15 15
23 23 21 21 20 18 22 18 17 19 19 16 15 11 8 6 6 4 5 5 6 6 9 9 11 19 19 20 18 20 22 21 17 17 19 19 19 19 17 17 16 14 12
25 23 22 20 19 18 21 19 18 15 15 13 11 10 7 5 3 4 5 7 8 8 8 12 16 17 17 14 17 20 18 13 16 17 18 19 19 20 21 18 14 12 14
28 24 22 23 20 17 14 14 15 14 13 11 10 9 6 5 3 2 3 6 7 8 10 11 12 12 12 12 13 13 11 13 16 17 19 20 19 18 19 16 13 13 12
25 23 21 19 18 17 14 13 13 9 10 11 9 7 7 6 3 5 6 6 8 10 10 8 9 9 11 11 12 12 12 14 15 17 20 22 21 20 18 11 11 12 9
25 21 19 19 17 16 17 16 14 14 14 12 9 8 6 5 5 5 6 9 10 12 5 6 9 9 11 12 13 15 14 17 17 19 20 21 22 18 15 12 10 9 9
24 21 19 18 16 16 14 15 16 12 11 10 9 9 8 5 4 4 6 9 8 7 6 7 8 10 11 12 13 15 16 17 18 17 20 20 20 17 15 12 11 7 7
22 23 18 16 15 14 12 11 10 10 9 6 7 6 5 4 3 5 7 5 6 6 6 8 10 10 12 13 14 15 16 17 18 19 19 20 19 15 14 12 10 6 6
20 17 16 14 13 13 11 10 9 9 8 6 4 3 3 3 3 5 5 3 5 8 8 9 8 10 11 12 13 14 16 17 19 20 19 19 19 14 13 11 8 8 3
19 21 17 15 12 10 10 10 9 8 7 5 3 1 2 2 1 3 3 3 5 6 7 9 10 10 11 12 13 14 16 17 18 18 19 18 19 14 12 10 6 5 4
16 15 16 12 11 10 9 9 8 7 5 4 2 0 3 1 2 4 5 6 6 6 7 8 10 10 11 12 13 14 15 17 17 17 17 18 19 15 10 6 4 3 2
13 13 12 12 11 10 10 8 7 5 3 1 1 2 4 3 4 5 6 7 7 6 7 9 11 10 11 12 13 15 17 19 18 16 17 18 18 15 8 4 3 2 1
14 14 13 11 10 10 8 6 5 3 1 2 3 4 4 5 5 7 9 9 10 10 9 9 10 12 11 11 12 14 17 19 18 18 20 21 19 14 7 5 3 3 2
12 11 12 11 9 8 6 5 3 2 2 3 5 6 6 7 8 9 10 11 11 12 11 11 11 13 15 15 14 14 16 17 18 21 23 22 12 10 5 4 4 3 2
11 10 9 8 7 6 4 3 2 2 3 5 5 6 7 9 10 11 11 11 12 12 13 12 11 13 16 19 20 22 21 25 25 26 24 11 10 7 5 5 4 3 2
9 8 7 6 5 3 2 1 2 3 4 5 7 8 9 11 11 11 13 13 13 13 13 13 13 16 19 18 19 21 26 28 27 30 18 8 7 5 5 5 5 4 4
Wind_Direction
177 176 175 169 158 152 151 148 144 138 140 139 137 132 127 120 114 109 104 112 103 98 84 83 67 57 43 19 12 343 306 257 265 293 287 303 303 307 309 307 312 310 313
168 167 163 157 148 150 148 146 144 140 137 134 131 130 129 124 121 120 114 112 105 91 78 75 60 38 23 8 360 340 314 293 281 296 301 306 304 305 302 304 309 312 309
152 155 153 151 149 146 143 139 136 131 126 123 124 124 127 123 118 113 113 109 96 93 78 65 41 20 4 353 340 328 316 304 295 298 301 300 305 311 311 313 311 315 317
152 152 152 149 143 140 136 134 131 130 127 123 114 123 130 123 119 124 113 109 98 87 72 53 32 7 343 333 323 322 317 315 305 305 305 309 313 317 317 323 326 323 319
150 147 145 134 126 124 120 118 120 120 119 129 128 132 128 123 123 118 119 104 103 82 57 28 13 359 2 343 337 327 322 314 315 316 314 316 321 326 327 326 318 320 317
143 139 134 132 129 127 125 120 123 123 123 129 127 128 124 120 116 130 118 113 90 59 19 7 6 7 351 340 331 325 325 323 316 314 311 313 315 317 319 319 316 318 316
139 137 139 129 128 126 130 124 136 130 128 128 125 125 121 111 126 112 104 92 76 48 24 11 0 350 344 329 319 319 313 307 307 305 302 308 309 313 310 312 315 310 307
139 140 138 131 137 135 133 135 128 136 133 130 128 120 123 120 113 100 87 75 67 46 27 6 352 341 339 329 320 311 299 291 291 289 293 303 300 305 309 309 308 308 307
147 146 142 138 136 134 138 136 133 130 124 124 132 130 114 103 99 90 82 71 47 24 8 357 345 336 328 333 326 316 317 313 307 305 300 303 306 310 308 307 310 313 313
149 145 141 142 140 140 137 131 123 125 126 124 120 116 112 99 97 82 80 54 23 8 351 341 334 334 334 332 330 332 327 317 313 324 329 315 305 296 302 296 306 303 306
139 133 133 135 133 131 125 127 129 128 124 122 115 110 108 105 88 74 59 53 18 357 337 331 326 334 333 333 333 332 313 323 327 318 307 301 304 311 300 289 298 295 295
132 128 125 126 129 129 130 130 128 130 129 128 125 115 103 96 96 72 43 27 14 355 337 324 316 333 335 333 334 326 328 333 325 320 319 320 317 313 309 307 300 296 274
129 128 126 125 127 130 133 132 130 130 133 136 129 126 118 107 101 54 28 16 2 3 341 336 337 335 333 332 332 335 335 325 320 318 318 317 315 310 306 307 294 290 287
132 132 131 130 127 121 116 122 130 134 132 132 133 128 128 138 97 42 39 359 358 357 349 353 340 338 333 331 330 322 320 323 320 321 319 315 312 308 310 308 310 315 309
129 129 129 127 124 117 109 115 117 117 130 132 126 138 144 113 66 36 13 12 7 354 3 354 339 343 339 337 332 327 329 326 328 328 321 315 314 311 307 313 308 310 308
126 127 128 124 121 119 119 113 106 110 107 107 123 123 97 82 53 29 10 10 5 2 11 344 339 342 333 331 331 327 327 332 329 321 316 311 311 311 311 314 314 311 323
130 129 130 125 124 125 125 127 125 108 108 116 101 87 80 69 40 15 19 6 8 12 359 347 340 335 327 325 324 322 321 325 317 313 312 312 309 312 314 315 319 318 326
119 121 120 121 121 123 123 123 135 159 138 100 68 80 70 52 17 26 11 6 354 2 351 338 328 324 321 322 321 319 317 319 317 315 314 313 308 312 312 315 318 314 327
110 109 109 110 112 110 116 137 125 112 113 115 98 83 31 14 17 24 9 4 339 337 331 319 312 313 317 314 311 311 310 309 313 315 311 312 311 315 309 310 314 329 317
106 113 110 105 115 132 129 118 119 123 122 117 113 100 347 347 354 348 347 335 320 308 298 307 314 310 308 309 309 308 308 307 309 312 309 312 313 312 305 309 310 322 314
111 116 127 126 123 119 120 122 124 126 129 122 109 270 293 82 353 316 314 307 292 295 304 301 298 299 300 303 302 303 303 302 300 303 307 312 314 310 305 306 318 330 306
113 118 119 119 122 122 122 124 128 131 128 144 304 315 321 341 316 314 306 300 304 299 292 290 295 294 295 296 299 299 300 299 299 304 306 307 308 305 297 289 294 289 289
115 119 116 115 122 123 121 126 130 140 185 274 287 291 303 308 312 309 308 308 307 307 301 295 292 297 297 296 291 286 287 292 295 297 298 298 297 292 278 268 263 240 238
114 118 122 126 127 123 122 124 147 212 256 277 293 302 307 302 300 296 298 303 302 300 298 293 292 292 296 295 293 290 285 288 289 287 288 294 286 287 249 245 240 228 225
117 120 121 123 120 133 145 169 226 280 300 298 302 302 299 296 294 293 294 292 296 298 298 298 292 290 292 298 298 296 294 304 312 309 307 286 285 273 237 234 217 203 195
117 121 124 129 143 164 186 220 270 289 298 302 299 293 289 286 286 290 293 295 296 298 299 296 290 293 301 302 299 302 312 317 316 315 315 290 281 248 222 225 204 194 172